THY8RA LTAC-LTFM

Flight info

Callsign THY8RA
Flight time N/A
Altitude 28000
Route YAVRU A4 ERSEN ERSEN1A/35R
Aircraft B738/M-SDE2E3FGHIRWXY/LB1

Departure

Time N/A
Airport Esenboğa International Airport (LTAC)

Arrival

Time 2026-05-03 20:38
Airport İstanbul Airport (LTFM)
Time Latitude Longitude Altitude Speed Heading
2026-05-03 20:15 40.87992 30.44010 23944 ft 419 kts 271°
2026-05-03 20:15 40.88045 30.40205 23508 ft 414 kts 271°
2026-05-03 20:15 40.88107 30.36404 23015 ft 411 kts 272°
2026-05-03 20:15 40.88180 30.32664 22466 ft 409 kts 271°
2026-05-03 20:16 40.88262 30.28900 21904 ft 407 kts 272°
2026-05-03 20:16 40.88349 30.25206 21382 ft 404 kts 272°
2026-05-03 20:16 40.88443 30.21482 20861 ft 402 kts 272°
2026-05-03 20:16 40.88541 30.17826 20361 ft 399 kts 273°
2026-05-03 20:17 40.88642 30.14193 19901 ft 395 kts 273°
2026-05-03 20:17 40.88737 30.10596 19405 ft 392 kts 274°
2026-05-03 20:17 40.88832 30.07059 18910 ft 389 kts 274°
2026-05-03 20:17 40.88931 30.03497 18381 ft 387 kts 274°
2026-05-03 20:18 40.89030 29.99926 17859 ft 385 kts 274°
2026-05-03 20:18 40.89123 29.96437 17368 ft 383 kts 274°
2026-05-03 20:18 40.89215 29.92917 16891 ft 380 kts 275°
2026-05-03 20:18 40.89307 29.89480 16426 ft 377 kts 275°
2026-05-03 20:19 40.89396 29.86049 15922 ft 375 kts 275°
2026-05-03 20:19 40.89482 29.82615 15394 ft 373 kts 275°
2026-05-03 20:19 40.89566 29.79224 14913 ft 371 kts 275°
2026-05-03 20:19 40.89648 29.75845 14459 ft 366 kts 275°
2026-05-03 20:20 40.89727 29.72496 13983 ft 363 kts 275°
2026-05-03 20:20 40.89807 29.69185 13495 ft 360 kts 276°
2026-05-03 20:20 40.89881 29.65883 13008 ft 358 kts 276°
2026-05-03 20:20 40.89952 29.62620 12506 ft 357 kts 276°
2026-05-03 20:21 40.90026 29.59340 12050 ft 355 kts 276°
2026-05-03 20:21 40.90106 29.56138 11606 ft 352 kts 277°
2026-05-03 20:21 40.90187 29.52917 11142 ft 350 kts 277°
2026-05-03 20:21 40.90261 29.49693 10690 ft 347 kts 277°
2026-05-03 20:22 40.90327 29.46557 10386 ft 340 kts 277°
2026-05-03 20:22 40.90384 29.43473 10277 ft 327 kts 278°
2026-05-03 20:22 40.90437 29.40535 10176 ft 315 kts 278°
2026-05-03 20:22 40.90491 29.37707 10048 ft 304 kts 278°
2026-05-03 20:23 40.90546 29.34980 9830 ft 297 kts 278°
2026-05-03 20:23 40.90602 29.32377 9472 ft 297 kts 278°
2026-05-03 20:23 40.90660 29.29629 9154 ft 294 kts 278°
2026-05-03 20:23 40.90713 29.26965 8811 ft 292 kts 278°
2026-05-03 20:24 40.90767 29.24276 8470 ft 290 kts 278°
2026-05-03 20:24 40.90792 29.22967 8306 ft 289 kts 278°
2026-05-03 20:24 40.90818 29.21631 8122 ft 289 kts 278°
2026-05-03 20:24 40.90869 29.18999 7769 ft 288 kts 278°
2026-05-03 20:25 40.90920 29.16341 7455 ft 285 kts 278°
2026-05-03 20:25 40.90973 29.13738 7117 ft 283 kts 279°
2026-05-03 20:25 40.91025 29.11166 6785 ft 282 kts 279°
2026-05-03 20:25 40.91077 29.08572 6448 ft 280 kts 279°
2026-05-03 20:26 40.91126 29.06019 6143 ft 277 kts 279°
2026-05-03 20:26 40.91170 29.03523 5994 ft 268 kts 279°
2026-05-03 20:26 40.91160 29.01079 5860 ft 262 kts 273°
2026-05-03 20:26 40.90866 28.98701 5642 ft 263 kts 263°
2026-05-03 20:27 40.90372 28.96386 5364 ft 264 kts 259°
2026-05-03 20:27 40.89826 28.94053 5072 ft 263 kts 259°
2026-05-03 20:27 40.89304 28.91761 4939 ft 258 kts 261°
2026-05-03 20:27 40.88807 28.89469 4943 ft 262 kts 261°
2026-05-03 20:28 40.88319 28.87154 4945 ft 262 kts 261°
2026-05-03 20:28 40.87855 28.84844 4952 ft 260 kts 265°
2026-05-03 20:28 40.87697 28.82522 4941 ft 246 kts 288°
2026-05-03 20:28 40.88312 28.80560 4956 ft 225 kts 320°
2026-05-03 20:29 40.89459 28.79303 4953 ft 207 kts 340°
2026-05-03 20:29 40.90730 28.78472 4960 ft 203 kts 343°
2026-05-03 20:29 40.92016 28.77661 4950 ft 203 kts 342°
2026-05-03 20:29 40.93270 28.76796 4956 ft 205 kts 339°
2026-05-03 20:30 40.94499 28.75828 4958 ft 203 kts 338°
2026-05-03 20:30 40.95708 28.74854 4958 ft 203 kts 337°
2026-05-03 20:30 40.96911 28.73901 4957 ft 202 kts 339°
2026-05-03 20:30 40.98185 28.73194 4958 ft 194 kts 356°
2026-05-03 20:31 40.99500 28.73158 4964 ft 189 kts
2026-05-03 20:31 41.00811 28.73244 4962 ft 185 kts
2026-05-03 20:31 41.02080 28.73242 4964 ft 183 kts
2026-05-03 20:31 41.03323 28.73217 4940 ft 175 kts
2026-05-03 20:32 41.04555 28.73198 4738 ft 178 kts
2026-05-03 20:32 41.05788 28.73176 4466 ft 177 kts
2026-05-03 20:32 41.07004 28.73151 4214 ft 174 kts
2026-05-03 20:32 41.08211 28.73127 3964 ft 172 kts
2026-05-03 20:33 41.09397 28.73104 3722 ft 170 kts
2026-05-03 20:33 41.10386 28.73085 3524 ft 168 kts
2026-05-03 20:33 41.11530 28.73063 3288 ft 165 kts
2026-05-03 20:33 41.12621 28.73038 3093 ft 150 kts
2026-05-03 20:34 41.13629 28.73018 2842 ft 140 kts
2026-05-03 20:34 41.14549 28.73003 2723 ft 128 kts
2026-05-03 20:34 41.15453 28.72991 2510 ft 130 kts
2026-05-03 20:34 41.16351 28.72962 2308 ft 127 kts
2026-05-03 20:35 41.17231 28.72954 2181 ft 127 kts
2026-05-03 20:35 41.18112 28.72933 1946 ft 124 kts
2026-05-03 20:35 41.18958 28.72919 1811 ft 122 kts
2026-05-03 20:35 41.19800 28.72901 1649 ft 122 kts
2026-05-03 20:36 41.20669 28.72886 1470 ft 123 kts
2026-05-03 20:36 41.21529 28.72864 1300 ft 126 kts
2026-05-03 20:36 41.22409 28.72857 1124 ft 126 kts
2026-05-03 20:36 41.23299 28.72834 952 ft 128 kts
2026-05-03 20:37 41.24193 28.72806 769 ft 129 kts
2026-05-03 20:37 41.25090 28.72800 600 ft 130 kts
2026-05-03 20:37 41.26001 28.72777 412 ft 132 kts
2026-05-03 20:37 41.26908 28.72760 335 ft 126 kts
2026-05-03 20:38 41.27582 28.72747 334 ft 64 kts 360°
2026-05-03 20:38 41.27876 28.72743 334 ft 33 kts
2026-05-03 20:38 41.28026 28.72814 334 ft 17 kts 28°
2026-05-03 20:38 41.28126 28.72895 334 ft 16 kts 50°
2026-05-03 20:39 41.28070 28.72977 334 ft 15 kts 180°
2026-05-03 20:39 41.27961 28.72979 334 ft 15 kts 179°
2026-05-03 20:39 41.27853 28.72981 334 ft 15 kts 179°
2026-05-03 20:39 41.27743 28.72983 333 ft 15 kts 180°
2026-05-03 20:40 41.27636 28.72985 334 ft 14 kts 179°
2026-05-03 20:40 41.27515 28.72987 334 ft 22 kts 179°
2026-05-03 20:40 41.27357 28.72988 334 ft 21 kts 180°
2026-05-03 20:40 41.27212 28.72990 334 ft 20 kts 180°
2026-05-03 20:41 41.27074 28.72992 334 ft 18 kts 179°
2026-05-03 20:41 41.26970 28.73009 334 ft 12 kts 140°
2026-05-03 20:41 41.26955 28.73109 334 ft 10 kts 89°
2026-05-03 20:41 41.26956 28.73235 334 ft 19 kts 89°
2026-05-03 20:42 41.26958 28.73437 334 ft 23 kts 89°
2026-05-03 20:42 41.26960 28.73644 334 ft 21 kts 89°
2026-05-03 20:42 41.26962 28.73841 333 ft 21 kts 89°
2026-05-03 20:42 41.26963 28.74034 334 ft 20 kts 89°
2026-05-03 20:43 41.26965 28.74215 334 ft 18 kts 88°
2026-05-03 20:43 41.26967 28.74379 334 ft 17 kts 89°
2026-05-03 20:43 41.26968 28.74538 333 ft 19 kts 89°
2026-05-03 20:43 41.26969 28.74744 333 ft 24 kts 90°
2026-05-03 20:44 41.26972 28.74930 333 ft 17 kts 89°
2026-05-03 20:44 41.26974 28.75079 333 ft 15 kts 89°
2026-05-03 20:44 41.26975 28.75217 334 ft 14 kts 89°
2026-05-03 20:44 41.26925 28.75294 333 ft 14 kts 179°
2026-05-03 20:45 41.26806 28.75297 334 ft 19 kts 178°
2026-05-03 20:45 41.26669 28.75301 333 ft 19 kts 179°
2026-05-03 20:45 41.26528 28.75305 333 ft 22 kts 179°
2026-05-03 20:45 41.26363 28.75312 333 ft 20 kts 178°
2026-05-03 20:46 41.26220 28.75318 333 ft 20 kts 177°
2026-05-03 20:46 41.26081 28.75327 333 ft 19 kts 177°
2026-05-03 20:46 41.25945 28.75334 333 ft 19 kts 179°
2026-05-03 20:46 41.25814 28.75339 333 ft 18 kts 178°
2026-05-03 20:47 41.25697 28.75345 333 ft 11 kts 179°
2026-05-03 20:47 41.25635 28.75302 333 ft 11 kts 263°
2026-05-03 20:47 41.25634 28.75200 333 ft 12 kts 269°
2026-05-03 20:47 41.25633 28.75088 333 ft 11 kts 269°
2026-05-03 20:48 41.25632 28.75003 333 ft 7 kts 269°
2026-05-03 20:48 41.25641 28.74959 333 ft 3 kts 327°
2026-05-03 20:48 41.25668 28.74955 333 ft 4 kts 360°
2026-05-03 20:48 41.25698 28.74955 333 ft 4 kts 359°
2026-05-03 20:49 41.25723 28.74954 333 ft 3 kts 359°
2026-05-03 20:49 41.25732 28.74954 333 ft 0 kts 359°